Location: Caltech
(34.1382°N, 118.1253°W)
Time: 11:56:39
(UTC-07:00)

Tiros 1 despin weight - All Passes

Search period start: 27 September 2016 00:00
Search period end: 07 October 2016 00:00
Orbit: 596 x 644 km, 48.2° (Epoch: 26 September)

Date Brightness Start Highest point End Pass type
(mag) Time Alt. Az. Time Alt. Az. Time Alt. Az.
27 Sep - 00:11:51 10° SW 00:16:09 55° SE 00:20:30 10° ENE night (unlit)
27 Sep - 01:54:05 10° W 01:57:56 28° NNW 02:01:50 10° NE night (unlit)
27 Sep - 03:38:22 10° NW 03:40:42 14° N 03:43:03 10° NNE visible
27 Sep - 05:20:43 10° NNW 05:23:45 17° NNE 05:26:48 10° ENE visible
27 Sep - 07:01:40 10° NW 07:06:08 53° NNE 07:10:39 10° ESE daylight
27 Sep - 08:43:47 10° WNW 08:47:30 25° SW 08:51:17 10° S daylight
27 Sep - 22:49:24 10° S 22:52:10 16° SE 22:54:56 10° E night (unlit)
28 Sep - 00:28:56 10° WSW 00:33:19 71° NW 00:37:46 10° NE night (unlit)
28 Sep - 02:12:18 10° WNW 02:15:31 19° NNW 02:18:47 10° NNE night (unlit)
28 Sep - 03:56:18 10° NNW 03:58:31 13° N 04:00:45 10° NNE visible
28 Sep - 05:37:41 10° NNW 05:41:24 24° NNE 05:45:08 10° ENE visible
28 Sep - 07:18:48 10° NW 07:23:23 79° SW 07:28:00 10° SE daylight
28 Sep - 09:03:08 10° WSW 09:04:24 11° SW 09:05:41 10° SW daylight
28 Sep - 23:05:05 10° SSW 23:09:07 36° SE 23:13:10 10° ENE night (unlit)
29 Sep - 00:46:33 10° W 00:50:40 37° NNW 00:54:49 10° NE night (unlit)
29 Sep - 02:30:40 10° NW 02:33:15 15° N 02:35:49 10° NNE night (unlit)
29 Sep - 04:13:40 10° NNW 04:16:19 15° N 04:18:59 10° NE visible
29 Sep - 05:54:38 10° NW 05:58:53 38° NNE 06:03:11 10° E visible
29 Sep - 07:36:16 10° WNW 07:40:28 37° SW 07:44:43 10° SSE daylight
29 Sep - 21:44:45 10° SE 21:45:13 10° SE 21:45:41 10° ESE night (unlit)
29 Sep - 23:21:47 10° SW 23:26:11 79° SE 23:30:38 10° NE night (unlit)
30 Sep - 01:04:35 10° WNW 01:08:10 23° NNW 01:11:46 10° NNE night (unlit)
30 Sep - 02:48:53 10° NNW 02:51:03 13° N 02:53:13 10° NNE visible
30 Sep - 04:30:42 10° NNW 04:34:01 20° NNE 04:37:22 10° ENE visible
30 Sep - 06:11:40 10° NW 06:16:13 72° NE 06:20:48 10° ESE visible
30 Sep - 07:54:26 10° W 07:57:25 17° SW 08:00:27 10° S daylight
30 Sep - 21:58:35 10° S 22:02:06 24° SE 22:05:37 10° E night (unlit)
30 Sep - 23:39:08 10° WSW 23:43:26 51° NNW 23:47:46 10° NE night (unlit)
01 Oct - 01:22:55 10° NW 01:25:49 17° NNW 01:28:43 10° NNE night (unlit)
01 Oct - 03:06:32 10° NNW 03:08:51 14° N 03:11:11 10° NE visible
01 Oct - 04:47:38 10° NW 04:51:36 29° NNE 04:55:35 10° E visible
01 Oct - 06:28:56 10° WNW 06:33:23 56° SW 06:37:53 10° SE daylight
01 Oct - 22:14:49 10° SSW 22:19:06 52° SE 22:23:24 10° ENE night (unlit)
01 Oct - 23:56:58 10° W 00:00:51 29° NNW 00:04:45 10° NE night (unlit)
02 Oct - 01:41:16 10° NW 01:43:34 14° N 01:45:52 10° NNE night (unlit)
02 Oct - 03:23:42 10° NNW 03:26:37 17° NNE 03:29:33 10° NE visible
02 Oct - 05:04:36 10° NW 05:09:01 50° NNE 05:13:27 10° ESE visible
02 Oct - 06:46:38 10° WNW 06:50:24 26° SW 06:54:13 10° S daylight
02 Oct - 20:52:31 10° SSE 20:55:06 15° SE 20:57:42 10° E night (unlit)
02 Oct - 22:31:51 10° WSW 22:36:15 75° NW 22:40:41 10° NE night (unlit)
03 Oct - 00:15:09 10° WNW 00:18:24 20° NNW 00:21:41 10° NNE night (unlit)
03 Oct - 01:59:15 10° NNW 02:01:23 13° N 02:03:30 10° NNE night (unlit)
03 Oct - 03:40:40 10° NNW 03:44:16 23° NNE 03:47:54 10° ENE visible
03 Oct - 05:21:44 10° NW 05:26:15 83° SW 05:30:50 10° SE visible
03 Oct - 07:05:44 10° WSW 07:07:19 12° SW 07:08:53 10° SSW daylight
03 Oct - 21:08:04 10° SSW 21:12:03 34° SE 21:16:02 10° ENE night (unlit)
03 Oct - 22:49:25 10° W 22:53:34 39° NNW 22:57:44 10° NE night (unlit)
04 Oct - 00:33:32 10° NW 00:36:06 15° N 00:38:41 10° NNE night (unlit)
04 Oct - 02:16:38 10° NNW 02:19:10 15° N 02:21:43 10° NE night (unlit)
04 Oct - 03:57:35 10° NW 04:01:45 36° NNE 04:05:58 10° E visible
04 Oct - 05:39:09 10° WNW 05:43:22 39° SW 05:47:36 10° SSE visible
04 Oct - 21:24:42 10° SW 21:29:07 75° SE 21:33:32 10° NE visible
04 Oct - 23:07:26 10° WNW 23:11:03 24° NNW 23:14:40 10° NNE night (unlit)
05 Oct - 00:51:47 10° NNW 00:53:53 13° N 00:56:01 10° NNE night (unlit)
05 Oct - 02:33:40 10° NNW 02:36:53 19° NNE 02:40:06 10° ENE night (unlit)
05 Oct - 04:14:37 10° NW 04:19:06 68° NE 04:23:37 10° ESE visible
05 Oct - 05:57:15 10° W 06:00:19 18° SW 06:03:25 10° S visible
05 Oct - 20:01:35 10° S 20:05:01 22° SE 20:08:27 10° E visible
05 Oct - 21:42:00 10° WSW 21:46:21 54° NNW 21:50:41 10° NE visible
05 Oct - 23:25:45 10° WNW 23:28:40 17° NNW 23:31:36 10° NNE night (unlit)
06 Oct - 01:09:28 10° NNW 01:11:42 13° N 01:13:56 10° NE night (unlit)
06 Oct - 02:50:36 10° NW 02:54:27 28° NNE 02:58:21 10° E night (unlit)
06 Oct - 04:31:51 10° WNW 04:36:16 59° SW 04:40:44 10° SE visible
06 Oct - 20:17:45 10° SSW 20:22:01 49° SE 20:26:17 10° ENE visible
06 Oct - 21:59:48 10° W 22:03:44 30° NNW 22:07:40 10° NE visible
06 Oct - 23:44:08 10° NW 23:46:24 14° N 23:48:43 10° NNE night (unlit)
